Regional Weather Roundup
Issued by NWS

Home | Current Version | Previous Version | Text Only | Print | Product List | Glossary On
Versions: 1 2 3 4 5 6 7 8 9 10 11 12 13 14 15 16 17 18 19 20 21 22 23 24 25 26
000
ASUS42 KTBW 231516
RWRFL
FLORIDA REGIONAL WEATHER ROUNDUP
NATIONAL WEATHER SERVICE TAMPA BAY RUSKIN FL
1100 AM EDT MON APR 23 2018

NOTE: "FAIR" INDICATES FEW OR NO CLOUDS BELOW 12,000 FEET WITH NO
SIGNIFICANT WEATHER AND/OR OBSTRUCTIONS TO VISIBILITY.

FLZ001>010-012>015-112-114-115-231600-
PANHANDLE FLORIDA

CITY           SKY/WX    TMP DP  RH WIND       PRES   REMARKS
PENSACOLA      PTSUNNY   72  62  71 W9        29.95R
PENSACOLA NAS  PTSUNNY   70  61  73 NW8       29.96R
MILTON NAS     PTSUNNY   71  66  84 W8        29.94
CRESTVIEW      FAIR      71  65  81 SW3       29.95F
DUKE FIELD     PTSUNNY   74  64  70 SW12      29.93F
VALPARAISO     PTSUNNY   75  67  76 SW9       29.93S
MARY ESTHER    MOSUNNY   73  68  86 S12       29.93
TRI COUNTY     FAIR      74  67  78 S7        29.95F
PANAMA CITY    PTSUNNY   73  66  78 S13       29.95R
TYNDALL AFB    PTSUNNY   73  68  86 SW7       29.97S
APALACHICOLA   CLOUDY    75  73  93 S14       29.97R

STATION/POSITION SKY/WX   TEMP    WIND        PRES    WAVE   SWELL
                          AIR SEA DIR/SP/G            HT/PER HT/PER
                          (F)     (DEG/KT/KT) (MB)    (FT/S) (FT/S)
30.1N   87.6W              65     280/ 10/ 12 1015.4R   4/ 6   3/ 6
29.2N   88.2W                 72  300/ 14/ 17 1016.6R   4/ 5
28.8N   86.0W              74 74  250/ 14/ 17 1014.8R   3/ 6   2/ 9
PANAMA CITY BEAC           70 70  230/  9/ 10 1014.9R
TOWER C                    72     220/ 15/ 16 1015.4R

$$
FLZ011-016>038-118-127-128-134-139-239-231600-
NORTH FLORIDA

CITY           SKY/WX    TMP DP  RH WIND       PRES   REMARKS
MARIANNA       FAIR      76  69  79 SW12      29.94F
TALLAHASSEE    PTSUNNY   77  70  79 S10G18    29.97S
PERRY          PTSUNNY   79  68  69 S12G18    30.00S
LIVE OAK       PTSUNNY   77  70  78 VRB6G12   30.02S
CROSS CITY     PTSUNNY   76  73  91 S10       30.01S
LAKE CITY      CLOUDY    72  70  94 S6        30.02S
GAINESVILLE    PTSUNNY   76  70  82 S7        30.05S
WILLISTON      SUNNY     75  73  94 S6        30.03S
PALATKA        CLOUDY    73  73 100 SW8       30.05R
MAYPORT NAS    LGT RAIN  74  71  91 S9        30.03S
JACKSONVILLE   CLOUDY    77  70  79 S15       30.02S
JAX NAS        PTSUNNY   75  71  87 S12       30.04S
JAX CECIL      CLOUDY    77  75  94 SE8       30.02
FERNANDINA BEA PTSUNNY   76  70  82 S6        30.02S
ST AUGUSTINE   LGT RAIN  72  70  94 S8        30.06R FOG
PALM COAST     PTSUNNY   73  72  94 S5        30.04S

STATION/POSITION SKY/WX   TEMP    WIND        PRES    WAVE   SWELL
                          AIR SEA DIR/SP/G            HT/PER HT/PER
                          (F)     (DEG/KT/KT) (MB)    (FT/S) (FT/S)
SHELL POINT      NOT AVBL
KEATON BEACH               73     180/ 13/ 16 1016.1R
CEDAR KEY                  74     190/ 12/ 13 1016.7R
FERNANDINA                 76 68  150/  8/ 13 1017.6R
30.7N   81.3W                 66                N/A     7/ 8   2/11
MAYPORT                    73 67  190/  6/  9 1017.0S
31.4N   80.9W              67 65  130/ 12/ 14 1016.8S   8/ 8   7/ 8
ST AUGUSTINE               69 68  240/ 11/ 15 1017.8R

$$
FLZ040-043>046-052-053-057-058-063-144-231600-
INTERIOR CENTRAL FLORIDA

CITY           SKY/WX    TMP DP  RH WIND       PRES   REMARKS
OCALA          CLOUDY    73  71  93 S8        30.04R
LEESBURG       HVY RAIN  75  72  90 S9G17     30.04F FOG
SANFORD        FAIR      79  71  76 S8        30.04S
ORLANDO EXEC   FAIR      80  72  76 S9        30.04F
ORLANDO INTL   PTSUNNY   81  71  71 SW18      30.04F
KISSIMMEE      PTSUNNY   80  72  76 SW9       30.05F
WINTER HAVEN   FAIR      80  72  76 S10       30.06S
LAKELAND       PTSUNNY   79  73  83 S12       30.05S
BARTOW         PTSUNNY   77  72  83 S13       30.05S
SEBRING        FAIR      83  70  63 S9        30.05S
OKEECHOBEE     FAIR      81  72  74 S12       30.05S

$$
FLZ041-047-054-059-064-141-147-231600-
EAST CENTRAL FLORIDA

CITY           SKY/WX    TMP DP  RH WIND       PRES   REMARKS
ORMOND BEACH   PTSUNNY   75  72  88 S9        30.05R
DAYTONA BEACH  PTSUNNY   76  72  87 S8        30.04S
DELAND         LGT RAIN  75  72  88 S7        30.04S
NEW SMYRNA BEA MOSUNNY   77  70  78 SW12      30.05S
JFK SPACE CTR  FAIR      79  70  74 SW10      30.04S
TITUSVILLE     PTSUNNY   81  72  74 S12       30.06R
CAPE CANAVERAL FAIR      79  72  79 S12       30.04R
PATRICK AFB    FAIR      80  74  81 S8        30.05R
MELBOURNE      PTSUNNY   84  70  62 S15       30.04S
VERO BEACH     PTSUNNY   83  70  64 S14       30.05S
FT PIERCE      FAIR      83  71  67 S12       30.05S
STUART         PTSUNNY   86  72  62 S12       30.07S

STATION/POSITION SKY/WX   TEMP    WIND        PRES    WAVE   SWELL
                          AIR SEA DIR/SP/G            HT/PER HT/PER
                          (F)     (DEG/KT/KT) (MB)    (FT/S) (FT/S)
28.5N   80.2W              75 73  160/ 12/ 14 1018.2R   5/ 8   5/ 8
28.9N   78.5W              74 75  120/ 25/ 31 1019.8R   9/ 7   2/14
TRIDENT PIER               77 76  150/  9/ 12 1019.1R
28.4N   80.5W                 76                N/A     3/ 8
27.5N   80.2W                 75                N/A     5/ 8

$$
FLZ050-056-061-142-242-148-248-149-249-151-251-155-255-
160-260-231600-
WEST CENTRAL FLORIDA

CITY           SKY/WX    TMP DP  RH WIND       PRES   REMARKS
CRYSTAL RIVER  CLOUDY    75  70  83 S5        30.03S
INVERNESS      CLOUDY    73  73 100 S7        30.04R
BROOKSVILLE    PTSUNNY   76  72  87 S9        30.04S
CLEARWATER AIR CLOUDY    77  72  83 S7        30.03S
ST PETE CLEARW CLOUDY    79  73  82 S13       30.03S
TAMPA INTL     CLOUDY    79  71  76 S10       30.04S
TAMPA EXEC     CLOUDY    79  73  83 S8        30.04S
MACDILL AFB    PTSUNNY   78  72  82 S9        30.04R
PETER O KNIGHT CLOUDY    77  73  88 S8        30.04S
ST PETERSBURG  CLOUDY    78  73  84 S10       30.02R
SARASOTA       PTSUNNY   79  73  82 S12       30.03R
VENICE         FAIR      82  75  78 S12       30.05S

STATION/POSITION SKY/WX   TEMP    WIND        PRES    WAVE   SWELL
                          AIR SEA DIR/SP/G            HT/PER HT/PER
                          (F)     (DEG/KT/KT) (MB)    (FT/S) (FT/S)
27.3N   84.2W                 74                N/A     3/ 6
CLEARWATER BEACH           76 75  160/ 12/ 16 1016.8R
MIDDLE TAMPA BAY           77     200/ 10/ 12 1017.1R
VENICE                     77 77  160/ 10/ 11 1017.4R

$$
FLZ066-069-070-075>078-162-262-165-265-231600-
SOUTHWEST FLORIDA AND KEYS

CITY           SKY/WX    TMP DP  RH WIND       PRES   REMARKS
PUNTA GORDA    PTSUNNY   84  69  60 S14       30.06S
FT MYERS       PTSUNNY   84  71  65 S12G22    30.04R
SOUTHWEST INTL FAIR      83  71  67 S13       30.05R
NAPLES         FAIR      85  73  67 S14G20    30.04R
MARCO ISLAND   CLOUDY    83  74  74 S13       30.06R
IMMOKALEE      CLOUDY    84  72  65 S9G17     30.06S
MARATHON       FAIR      84  74  71 S6        30.05R
KEY WEST NAS   FAIR      83  74  74 S14       30.05R
KEY WEST INTL  FAIR      82  74  76 S13       30.05R

STATION/POSITION SKY/WX   TEMP    WIND        PRES    WAVE   SWELL
                          AIR SEA DIR/SP/G            HT/PER HT/PER
                          (F)     (DEG/KT/KT) (MB)    (FT/S) (FT/S)
NAPLES                     82 80              1017.2R
26.0N   85.6W              78 79  200/ 12/ 16 1016.2
DRY TORTUGAS               78     170/  6/  6 1017.7R
SAND KEY                   78                 1017.6R
SOMBRERO KEY               79     130/ 12/ 13 1017.0R
LONG KEY                   80 81  170/ 11/ 12 1017.7R
MOLASSES REEF              79 79  160/  9/ 10 1018.3

$$
FLZ067-068-071>074-168-172>174-231600-
SOUTHEAST FLORIDA

CITY           SKY/WX    TMP DP  RH WIND       PRES   REMARKS
W PALM BEACH   PTSUNNY   80  78  94 S10       30.06F
BOCA RATON     MOSUNNY   81  73  78 S12G22    30.06
FT LAUDER-EXEC HVY RAIN  79  75  87 SE15      30.06S FOG
FT LAUDERDALE  PTSUNNY   81  77  88 SE18G24   30.05S
POMPANO BEACH  PTSUNNY   82  75  79 SE17      30.06S
PEMBROKE PINES TSTM      80  73  79 S8        30.08R
OPA LOCKA      LGT RAIN  77  72  84 S8        30.07S
MIAMI          PTSUNNY   80  74  81 SE10      30.06S
WEST KENDALL   CLOUDY    83  71  67 S16G23    30.06R
HOMESTEAD      FAIR      82  72  71 SE14      30.05S

STATION/POSITION SKY/WX   TEMP    WIND        PRES    WAVE   SWELL
                          AIR SEA DIR/SP/G            HT/PER HT/PER
                          (F)     (DEG/KT/KT) (MB)    (FT/S) (FT/S)
PORT EVERGLADES            80     140/ 12/ 20 1018.1
VIRGINIA KEY               79 80  140/  8/ 12 1017.7R
LAKE WORTH                 78 77  180/ 13/ 14 1019.1R
FOWEY ROCKS                78 79



USA.gov is the U.S. government's official web portal to all federal, state and local government web resources and services.